Total_Precipitation_Accumulation
1.28 1.45 1.47 1.40 1.44 1.51 1.66 1.76 1.85 1.75 1.65 1.51 1.25 1.16 1.18 1.16 1.24 1.13 1.15 1.01 0.73 0.62 0.60 0.60 0.58 0.62 0.73 0.92 1.09 1.25 1.48 1.66 1.77 1.89 1.97 2.10 2.23 2.36
1.50 1.62 1.57 1.49 1.52 1.56 1.71 1.89 2.05 2.01 1.75 1.38 1.27 1.27 1.33 1.25 1.30 1.09 1.06 1.12 0.91 0.71 0.63 0.61 0.60 0.62 0.66 0.78 0.91 1.03 1.18 1.31 1.44 1.56 1.64 1.69 1.75 1.89
1.45 1.56 1.62 1.64 1.65 1.67 1.81 1.87 2.01 2.20 1.99 1.58 1.48 1.53 1.64 1.61 1.49 1.28 1.11 1.05 0.93 0.85 0.70 0.64 0.62 0.64 0.69 0.74 0.85 0.95 1.01 1.07 1.20 1.33 1.45 1.54 1.59 1.65
1.52 1.59 1.52 1.62 1.76 1.74 1.85 1.84 1.88 2.11 2.05 1.85 1.77 1.78 1.85 1.80 1.76 1.54 1.21 1.07 1.01 0.94 0.76 0.67 0.65 0.64 0.65 0.65 0.72 0.85 0.96 1.02 1.06 1.09 1.16 1.30 1.46 1.58
1.54 1.53 1.51 1.64 1.68 1.75 1.84 1.77 1.73 1.84 2.00 1.99 1.96 2.05 2.08 1.95 1.85 1.67 1.47 1.39 1.13 1.03 0.92 0.81 0.76 0.73 0.71 0.70 0.72 0.80 0.92 1.05 1.16 1.23 1.27 1.32 1.37 1.43
1.56 1.52 1.53 1.56 1.57 1.61 1.67 1.69 1.74 1.86 1.99 2.04 2.10 2.27 2.28 2.31 2.24 1.97 1.82 1.76 1.47 1.14 1.10 1.01 0.94 0.86 0.79 0.72 0.72 0.77 0.86 1.02 1.18 1.26 1.30 1.37 1.42 1.41
1.69 1.59 1.50 1.48 1.50 1.51 1.45 1.52 1.67 1.80 1.80 1.85 1.93 2.14 2.25 2.37 2.33 2.12 1.98 1.96 1.80 1.44 1.32 1.22 1.17 1.07 1.01 0.95 0.84 0.77 0.81 0.92 1.08 1.21 1.27 1.36 1.46 1.51
1.78 1.72 1.56 1.42 1.37 1.31 1.21 1.23 1.32 1.41 1.56 1.74 1.78 1.96 2.15 2.28 2.41 2.47 2.32 2.15 2.04 1.81 1.71 1.57 1.35 1.28 1.14 1.01 0.94 0.77 0.69 0.74 0.82 0.95 1.07 1.21 1.33 1.49
1.65 1.64 1.42 1.28 1.34 1.25 1.24 1.20 1.18 1.25 1.33 1.53 1.68 1.74 1.97 2.16 2.37 2.53 2.53 2.44 2.28 2.13 2.03 1.88 1.57 1.39 1.20 1.08 0.99 0.78 0.65 0.59 0.61 0.68 0.77 0.90 1.02 1.14
1.46 1.49 1.45 1.37 1.36 1.40 1.34 1.24 1.15 1.19 1.26 1.26 1.30 1.45 1.70 2.06 2.27 2.31 2.43 2.42 2.31 2.18 2.13 2.08 1.83 1.63 1.43 1.28 1.17 0.90 0.74 0.64 0.60 0.59 0.61 0.67 0.78 0.90
1.36 1.37 1.38 1.31 1.35 1.26 1.20 1.19 1.19 1.21 1.16 1.11 1.10 1.17 1.33 1.56 1.92 2.06 2.13 2.08 1.97 1.75 1.65 1.71 1.68 1.63 1.57 1.44 1.27 1.10 0.91 0.77 0.70 0.69 0.67 0.67 0.72 0.81
1.37 1.35 1.29 1.17 1.13 1.07 1.06 1.17 1.14 1.11 1.15 1.11 1.05 1.01 1.00 1.15 1.44 1.63 1.69 1.72 1.62 1.58 1.34 1.31 1.32 1.37 1.49 1.38 1.24 1.17 1.09 1.07 0.97 0.84 0.76 0.73 0.81 0.79
1.39 1.38 1.30 1.21 1.03 0.99 0.99 1.03 1.05 1.03 1.11 1.16 1.13 1.10 1.11 1.11 1.15 1.30 1.50 1.60 1.55 1.35 1.21 1.22 1.21 1.23 1.26 1.24 1.19 1.12 1.14 1.18 1.16 1.11 1.04 1.02 1.04 1.01
1.39 1.37 1.38 1.24 1.04 0.98 0.92 0.91 0.92 0.87 0.91 1.02 1.00 0.94 0.94 0.94 0.97 1.12 1.31 1.44 1.52 1.37 1.24 1.27 1.27 1.20 1.18 1.08 1.02 0.96 0.97 1.11 1.25 1.36 1.31 1.32 1.30 1.37
1.31 1.35 1.30 1.16 0.97 0.84 0.84 0.82 0.76 0.74 0.82 0.91 0.92 0.83 0.79 0.83 0.92 1.07 1.22 1.35 1.40 1.34 1.21 1.22 1.25 1.22 1.19 1.09 0.95 0.88 0.89 0.95 1.05 1.24 1.43 1.51 1.49 1.49
1.29 1.25 1.14 1.07 0.94 0.85 0.85 0.78 0.71 0.77 0.85 0.87 0.90 0.90 0.86 0.88 0.92 0.99 1.09 1.20 1.27 1.21 1.12 1.12 1.19 1.26 1.18 1.03 1.00 0.91 0.87 0.89 0.87 0.98 1.26 1.54 1.75 1.84
1.47 1.41 1.29 1.19 1.05 0.95 0.93 0.95 0.96 1.01 0.99 0.97 1.01 1.06 1.03 0.97 0.94 0.97 1.10 1.14 1.10 1.04 1.03 1.06 1.13 1.26 1.25 1.11 1.02 0.94 0.94 0.89 0.82 0.86 1.02 1.20 1.44 1.70
1.36 1.30 1.25 1.18 1.09 1.08 1.12 1.14 1.12 1.13 1.09 1.10 1.11 1.14 1.14 1.06 0.98 0.97 1.07 1.13 1.07 1.01 0.98 1.01 1.16 1.32 1.34 1.21 0.90 0.80 0.81 0.82 0.83 0.94 1.03 1.02 1.08 1.19
1.29 1.29 1.26 1.23 1.16 1.14 1.16 1.16 1.13 1.12 1.16 1.17 1.17 1.18 1.22 1.22 1.18 1.12 1.10 1.15 1.13 1.10 1.04 1.06 1.14 1.20 1.14 1.00 0.87 0.68 0.70 0.75 0.85 0.94 1.02 0.96 0.89 0.94
1.20 1.25 1.23 1.21 1.18 1.15 1.11 1.12 1.12 1.15 1.15 1.14 1.17 1.20 1.26 1.27 1.28 1.21 1.13 1.11 1.13 1.16 1.14 1.09 1.03 0.99 0.98 0.92 0.87 0.81 0.71 0.79 0.88 0.92 0.95 0.98 0.94 0.90
1.13 1.12 1.08 1.04 1.01 1.01 1.01 1.00 0.99 1.01 1.03 1.09 1.10 1.10 1.16 1.15 1.11 1.08 1.09 1.08 1.09 1.16 1.08 0.92 0.88 0.95 1.11 1.24 1.08 0.84 0.79 0.78 0.89 0.97 1.04 1.12 1.10 1.06
1.04 0.99 0.99 0.96 0.95 0.94 0.95 0.93 0.93 0.95 1.00 1.09 1.10 1.08 1.10 1.08 1.02 1.02 1.07 1.10 1.07 1.08 1.09 1.06 1.15 1.22 1.25 1.22 1.05 0.90 0.92 0.99 1.02 1.04 1.05 1.01 1.00 0.95
0.95 0.91 0.90 0.86 0.84 0.84 0.85 0.87 0.91 0.96 1.00 1.05 1.10 1.12 1.14 1.11 1.05 1.05 1.09 1.13 1.14 1.15 1.28 1.33 1.28 1.23 1.17 1.17 1.15 1.08 1.06 1.16 1.27 1.28 1.19 1.00 0.76 0.62